Regional Weather Roundup
Issued by NWS

Home | Current Version | Previous Version | Graphics & Text | Print | Product List | Glossary On
Versions: 1 2 3 4 5 6 7 8 9 10 11 12 13 14 15 16 17 18 19 20 21 22 23 24 25 26 27 28 29 30 31 32 33 34 35 36 37 38 39 40 41 42 43 44 45 46 47 48 49 50
000
ASUS43 KLOT 272008
RWRIL

ILLINOIS REGIONAL WEATHER ROUNDUP
NATIONAL WEATHER SERVICE CHICAGO/ROMEOVILLE IL
300 PM CDT WED JUL 27 2016

NOTE: "FAIR" INDICATES FEW OR NO CLOUDS BELOW 12,000 FEET WITH NO
SIGNIFICANT WEATHER AND/OR OBSTRUCTIONS TO VISIBILITY.

* THESE STATIONS ARE NOT UNDER NWS QUALITY CONTROL. THEY ALSO MAY NOT
  REPORT WEATHER SUCH AS PRECIPITATION OR FOG.

ILZ001-002-007-009-015-016-024-272100-
NORTHWEST ILLINOIS

CITY           SKY/WX    TMP DP  RH WIND       PRES   REMARKS
MOLINE         MOSUNNY   87  68  52 S7        29.95F HX  90
STERLING*      MOSUNNY   85  68  56 VRB6      29.97F HX  88
SAVANNA*       PTSUNNY   85  68  58 S5        29.96F HX  88
$$

ILZ003-004-008-010-011-017-018-272100-
NORTH CENTRAL ILLINOIS

CITY           SKY/WX    TMP DP  RH WIND       PRES   REMARKS
ROCKFORD       CLOUDY    86  65  49 S6        29.98F HX  88
FREEPORT*      PTSUNNY   84  66  55 S3        30.00F HX  86
ROCHELLE*      CLOUDY    83  69  61 SW3       29.98F HX  87
DE KALB*       MOSUNNY   84  70  61 S7        29.99S HX  89
$$

ILZ005-006-012>014-019>023-272100-
NORTHEAST ILLINOIS

CITY           SKY/WX    TMP DP  RH WIND       PRES   REMARKS
CHICAGO-OHARE  PTSUNNY   87  63  44 VRB3      29.95F HX  88
CHICAGO-MIDWAY PTSUNNY   89  63  41 S8        29.94F HX  90
AURORA         MOSUNNY   87  68  52 SE5       29.97F HX  90
LANSING*       SUNNY     87  64  46 S3        29.96F HX  87
JOLIET*        MOSUNNY   87  68  53 SW5       29.96F HX  90
WAUKEGAN       MOSUNNY   85  66  53 SE9       29.95F HX  87
DUPAGE AIRPORT SUNNY     88  64  44 SW9       29.96F HX  89
KANKAKEE*      MOSUNNY   87  69  53 CALM      29.97F HX  91
WHEELING       MOSUNNY   87  62  43 CALM      29.96F HX  87
MORRIS*        MOSUNNY   84  70  62 CALM      29.96F HX  89
ROMEOVILLE*    MOSUNNY   86  63  46 SW5       29.96F HX  87
NORTHERLY ISL    N/A     81  70  69 E10         N/A  HX  84
$$

LMZ740>746-272100-
SOUTHERN LAKE MICHIGAN

STATION/POSITION SKY/WX   TEMP    WIND        PRES    VSBY  WAVE
                          AIR SEA DIR/SP/G                  HT/PER
                          (F)     (DEG/KT/KT) (MB)    (MI)  (FT/S)
SOUTHERN BUOY              77 77  160/  6/  6 1014.2F         0
WILMETTE HARBOR            77 73  140/  6/  8   N/A           1
HARRISON CRIB              80     100/ 11/ 11   N/A
BURNHAM HARBOR             81     100/  8/ 10   N/A
CALUMET HARBOR             80      40/  6/ 10 1014.5
BURNS HARBOR               80      60/  8/  8 1015.9F
MICHIGAN CITY              78     360/  6/  6   N/A
MICHIGAN CITY 6N           79 78   50/  6/  6   N/A           0
ST. JOSEPH                 78     330/  4/  4 1014.8F         0
$$

ILZ025>027-034>036-040-047-049-050-058-095>099-272100-
WEST-CENTRAL ILLINOIS

CITY           SKY/WX    TMP DP  RH WIND       PRES   REMARKS
QUINCY         MOSUNNY   89  74  60 VRB5      29.94F HX  98
GALESBURG*     MOSUNNY   85  69  58 S5        29.97S HX  88
MACOMB*        PTSUNNY   85  71  64 S5        29.98F HX  90
JACKSONVILLE*  SUNNY     85  74  70 E9        29.95F HX  93
PITTSFIELD*    MOSUNNY   88  77  68 E7        29.96F HX 100
$$

ILZ028>032-037-038-041>044-048-051>054-059>061-272100-
CENTRAL ILLINOIS

CITY           SKY/WX    TMP DP  RH WIND       PRES   REMARKS
PONTIAC        MOSUNNY   85  72  63 SE3       29.98F HAZE    HX  91
BLOOMINGTON    MOSUNNY   84  67  56 VRB7      29.98F HX  86
DECATUR        CLOUDY    83  72  69 E3        29.98F HX  88
PEORIA         MOSUNNY   87  71  58 VRB7      29.96F HX  93
LACON*         MOSUNNY   85  67  53 SE5       29.95F HX  88
LINCOLN*       MOSUNNY   87  73  61 E6        29.97F HX  94
SPRINGFIELD    PTSUNNY   85  75  72 SE10      29.97F HX  93
TAYLORVILLE    TSTM      75  74  95 MISG      29.97F VSB 3/4
$$

ILZ033-039-045-046-055>057-062-063-272100-
EAST-CENTRAL ILLINOIS

CITY           SKY/WX    TMP DP  RH WIND       PRES   REMARKS
CHAMPAIGN      MOSUNNY   82  70  66 SE6       29.98F HX  86
MATTOON        MOSUNNY   84  71  65 S5        29.96F HX  89
PARIS*         MOSUNNY   86  70  59 CALM      29.99F HX  91
$$

ILZ079-100>102-272100-
SOUTHWEST ILLINOIS

CITY           SKY/WX    TMP DP  RH WIND       PRES   REMARKS
ALTON          MOSUNNY   86  75  70 E6        29.95F HX  95
BELLEVILLE     PTSUNNY   87  78  72 CALM      29.93F HX 100
CAHOKIA*       MOSUNNY   89  74  60 VRB6      29.93F HX  98
SPARTA*        PTSUNNY   84  76  75 CALM      29.95F HX  93
$$

ILZ064>066-069>071-074>076-080>082-084>086-088>090-092>094-272100-
SOUTH-CENTRAL ILLINOIS

CITY           SKY/WX    TMP DP  RH WIND       PRES   REMARKS
CARBONDALE     MOSUNNY   90  76  63 CALM      29.92F HX 101
CAIRO*         PTSUNNY   90  78  67 CALM      29.90F HX 103
EFFINGHAM*     PTSUNNY   87  74  65 E5        29.98F HX  96
MARION         PTSUNNY   88  77  70 N6        29.95F HX 100
MT. VERNON     PTSUNNY   88  73  62 MISG      29.93F HX  96
CENTRALIA*     MOSUNNY   86  77  74 CALM      29.95F HX  97
SALEM*         MOSUNNY   88  74  63 CALM      29.95F HX  96
METROPOLIS*    SUNNY     92  75  56 E6        29.92F HX 103
$$

ILZ067-068-072-073-078-083-087-091-272100-
SOUTHEAST ILLINOIS

CITY           SKY/WX    TMP DP  RH WIND       PRES   REMARKS
LAWRENCEVILLE  CLOUDY    85  74  69 N7        29.97F HX  92
FLORA*         CLOUDY    86  77  74 E3        29.96F HX  97
FAIRFIELD*     CLOUDY    86  77  74 CALM      29.93F HX  96
HARRISBURG*    CLOUDY    79  72  79 SE22G35   29.94S THUNDER HX  82
ROBINSON*      PTSUNNY   85  71  64 CALM      29.97F HX  90
CARMI*         CLOUDY    87  77  72 CALM      29.93F HX  99
$$

ABBREVIATIONS USED IN REMARKS
   TC - TEMPERATURE IN CELSIUS
  WCI - WIND CHILL INDEX
   HX - HEAT INDEX
  VSB - VISIBILITY
$$




USA.gov is the U.S. government's official web portal to all federal, state and local government web resources and services.